EW2328 Weather Reports


Display with metric or nautical units.
time (UTC)temp
F
wind
direction
speed
MPH
gust
MPH
rain 1hr
in
rain 24hr
in
rain mn
in
humidity
%
barometer
mb
20260503173518 62 203 3.0 9.0 0.00 0.00 0.00 44 1017.6
20260503172518 61 203 2.0 12.0 0.00 0.00 0.00 42 1017.9
20260503171518 62 203 1.0 6.0 0.00 0.00 0.00 44 1018.0
20260503170518 62 203 1.0 5.0 0.00 0.00 0.00 43 1018.3
20260503150518 58 0.0 2.0 0.00 0.00 0.00 54 1020.0
20260503130518 47 0.0 1.0 0.00 0.00 0.00 73 1019.5
20260503110538 37 0.0 0.0 0.00 0.00 0.00 83 1018.8
20260503081518 36 0.0 1.0 0.00 0.00 0.00 86 1018.2
20260503080538 35 0.0 0.0 0.00 0.00 0.00 86 1018.2
20260503072518 36 0.0 0.0 0.00 0.00 0.00 85 1018.3
20260503071518 36 0.0 0.0 0.00 0.00 0.00 85 1018.3
20260503070519 36 0.0 0.0 0.00 0.00 0.00 85 1018.3
20260503054522 35 0.0 0.0 0.00 0.00 0.00 82 1018.5
20260503053518 35 0.0 0.0 0.00 0.00 0.00 82 1018.5
20260503052517 36 0.0 0.0 0.00 0.00 0.00 82 1018.5
20260503051538 36 0.0 0.0 0.00 0.00 0.00 81 1018.5
20260503050518 37 0.0 0.0 0.00 0.00 0.00 81 1018.5
20260503045518 38 0.0 0.0 0.00 0.00 0.00 81 1018.6
20260503044518 38 0.0 0.0 0.00 0.00 0.00 81 1018.6
20260503043518 39 0.0 0.0 0.00 0.00 0.00 80 1018.6
20260503042517 39 0.0 0.0 0.00 0.00 0.00 80 1018.6
20260503041521 39 0.0 0.0 0.00 0.00 0.00 79 1018.6
20260503040518 39 0.0 0.0 0.00 0.00 0.00 74 1018.5
20260503035539 40 0.0 0.0 0.00 0.00 0.00 72 1018.6
20260503034519 41 0.0 0.0 0.00 0.00 0.00 69 1018.5
20260503033518 41 0.0 0.0 0.00 0.00 0.00 69 1018.5
20260503032519 41 0.0 0.0 0.00 0.00 0.00 67 1018.5
20260503031519 41 0.0 0.0 0.00 0.00 0.00 67 1018.5
20260503030519 41 0.0 0.0 0.00 0.00 0.00 67 1018.5
20260503025518 41 0.0 0.0 0.00 0.00 0.00 70 1018.4
20260503024518 41 0.0 0.0 0.00 0.00 0.00 69 1018.5
20260503023519 41 0.0 0.0 0.00 0.00 0.00 66 1018.5
20260503022518 42 0.0 0.0 0.00 0.00 0.00 65 1018.4
20260503021518 43 0.0 0.0 0.00 0.00 0.00 64 1018.4
20260503020518 43 0.0 0.0 0.00 0.00 0.00 63 1018.3
20260503015539 44 0.0 0.0 0.00 0.00 0.00 62 1018.2
20260503014519 44 0.0 1.0 0.00 0.00 0.00 62 1018.2
20260503013518 45 0.0 1.0 0.00 0.00 0.00 62 1018.0
20260503012518 45 0.0 1.0 0.00 0.00 0.00 62 1018.0
20260503011518 46 0 1.0 3.0 0.00 0.00 0.00 60 1017.9
20260503010523 46 23 1.0 4.0 0.00 0.00 0.00 61 1017.9
20260503005520 46 0 1.0 2.0 0.00 0.00 0.00 60 1017.8
20260503004518 47 338 2.0 3.0 0.00 0.00 0.00 59 1017.7
20260503003518 47 23 2.0 6.0 0.00 0.00 0.00 58 1017.7
20260503002519 47 0 2.0 6.0 0.00 0.00 0.00 57 1017.8
20260503001539 48 23 3.0 7.0 0.00 0.00 0.00 56 1017.6
20260503000518 48 0 3.0 8.0 0.00 0.00 0.00 56 1017.5
20260502235518 48 338 2.0 8.0 0.00 0.00 0.00 55 1017.4
20260502234538 49 0 2.0 6.0 0.00 0.00 0.00 54 1017.3
20260502233518 49 338 3.0 9.0 0.00 0.00 0.00 53 1017.2
20260502232538 50 338 6.0 10.0 0.00 0.00 0.00 52 1017.2
20260502231518 50 23 4.0 7.0 0.00 0.00 0.00 53 1017.1
20260502230519 50 45 4.0 9.0 0.00 0.00 0.00 52 1017.2
20260502225538 51 293 2.0 7.0 0.00 0.00 0.00 51 1017.0
20260502224519 51 0 3.0 9.0 0.00 0.00 0.00 50 1017.1
20260502223519 51 338 3.0 7.0 0.00 0.00 0.00 51 1017.0
20260502222519 51 338 3.0 8.0 0.00 0.00 0.00 50 1016.9
20260502221518 51 0 4.0 11.0 0.00 0.00 0.00 49 1016.9
20260502220518 52 23 4.0 11.0 0.00 0.00 0.00 47 1016.9
20260502215518 52 23 5.0 11.0 0.00 0.00 0.00 48 1016.9
20260502214518 52 293 3.0 7.0 0.00 0.00 0.00 49 1016.8
20260502213539 51 0 4.0 8.0 0.00 0.00 0.00 49 1016.7
20260502212538 51 293 3.0 10.0 0.00 0.00 0.00 49 1016.6
20260502211519 52 0 4.0 12.0 0.00 0.00 0.00 48 1016.6
20260502210539 52 23 2.0 6.0 0.00 0.00 0.00 50 1016.7
20260502205518 51 23 3.0 12.0 0.00 0.00 0.00 48 1016.6
20260502204518 51 0 3.0 7.0 0.00 0.00 0.00 49 1016.8
20260502203538 52 338 3.0 9.0 0.00 0.00 0.00 48 1016.7
20260502202519 51 293 2.0 8.0 0.00 0.00 0.00 49 1016.8
20260502201518 51 0 4.0 7.0 0.00 0.00 0.00 49 1016.8
20260502200519 52 0.0 2.0 0.00 0.00 0.00 47 1017.0
20260502195518 52 293 2.0 11.0 0.00 0.00 0.00 48 1017.0
20260502194518 52 293 2.0 9.0 0.00 0.00 0.00 48 1017.1
20260502193520 52 45 5.0 12.0 0.00 0.00 0.00 47 1017.0
20260502192519 53 293 2.0 7.0 0.00 0.00 0.00 48 1017.1
20260502191519 52 45 5.0 10.0 0.00 0.00 0.00 48 1017.2
20260502190518 52 23 6.0 12.0 0.00 0.00 0.00 47 1017.4
20260502185518 52 293 4.0 12.0 0.00 0.00 0.00 50 1017.3
20260502184518 52 293 2.0 10.0 0.00 0.00 0.00 50 1017.5
20260502183559 52 0 4.0 11.0 0.00 0.00 0.00 48 1017.5
20260502182518 51 0 7.0 16.0 0.00 0.00 0.00 47 1017.5
20260502181519 52 293 4.0 10.0 0.00 0.00 0.00 48 1017.6
20260502180518 53 315 2.0 8.0 0.00 0.00 0.00 48 1017.6